Location: Gwatt
(46.7204°N, 7.6223°E)
Time: 17:00:49
(UTC+00:00)

Cosmos 990 Rocket - Pass Details

Date: 18 September 2020
Orbit: 746 x 769 km, 74.0° (Epoch: 30 October)

Event Time Altitude Azimuth Distance (km) Brightness Sun altitude
Rises 17:56:47 0° 191° (SSW) 3,177 7.3 -4.6°
Reaches altitude 10° 17:59:09 10° 189° (S) 2,257 6.5 -5.0°
Maximum altitude 18:04:12 66° 108° (ESE) 815 3.9 -5.9°
Drops below altitude 10° 18:09:18 10° 27° (NNE) 2,275 6.3 -6.8°
Sets 18:11:41 0° 25° (NNE) 3,206 7.1 -7.2°
